星链-30083 (STARLINK-30083 )

导读 | 星芒AI

STARLINK-30083 是 SpaceX Starlink 项目中的一颗低轨卫星,属于第三代星链卫星群。该卫星旨在为全球用户提供高速、低延迟的互联网服务,特别服务于偏远和网络基础设施薄弱的地区。它运行在约 550 公里的轨道高度,配备先进通信设备,支持宽带数据传输。作为 Starlink 计划的一部分,STARLINK-30083 有助于构建更稳定和广泛的卫星互联网网络,提升全球网络覆盖与连接能力。

基本信息
目录编号:
56295
目录名称:
STARLINK-30083
国际标识:
2023-056K
轨道中心:
EARTH
卫星名称:
星链-30083
卫星全名:
星链-30083 (STARLINK-30083 )
卫星状态:
在轨 (已飞行925 天)
发射日期:
2023-04-19 UTC
国别 :
美国 (US)
星等 :
--
轨道信息
数据来源 国际轨道数据
星历时间: 2025-10-30T08:23:25+0800
15小时前
查看轨道信息
半长轴: 6937.215km
偏心率: 0.0001147
轨道倾角: 43.002°
近地点辐角 269.759°
升交点赤经 174.463°
平近点角 90.313°
近地点: 558.284km
远地点: 559.876km
周期: 95.838分钟
每日圈数: 15.025368
详细信息
固有亮度:
5
最大亮度:
0.3
卫星平台:
Starlink v2.0 mini
覆盖范围:
全球
运营商:
太空探索技术公司
运营商所在国:
美国
制造商(研发单位):
太空探索技术公司
制造商所在国:
美国
使用方式:
暂无
卫星简介
星链(Starlink)计划是由太空探索技术公司(SpaceX)提出的一个巨型低轨卫星互联网星座项目,计划在2019年至2024年间在太空搭建由约1.2万颗卫星组成的“星链”网络,其中1584颗将部署在地球上空550千米处的近地轨道,并从2020年开始工作。该卫星仍在工作。
2D轨道图
3D轨道图
轨道高度分析图
轨道倾角分析图
轨道综合分析图
查看轨道综合分析图